{"data":{"norad_id":61936,"intl_designator":"2024-208A","name":"HAIYANG 4-01","alt_names":[],"object_type":"PAYLOAD","status":"ACTIVE","operator":null,"country":"PRC","launch_date":"2024-11-13","launch_site_code":"TAISC","launch_vehicle":null,"mission":null,"orbit_class":"UNKNOWN","rcs_meters":null,"size_class":null,"mass_kg":null,"dimensions":null,"purposes":[],"wikipedia_slug":null,"has_3d_model":false,"image_url":null,"decayed_at":null,"tle_current":{"epoch":"2026-05-25T04:03:15.645312Z","epoch_age_seconds":50705,"freshness":"FRESH","line1":"1 61936U 24208A   26145.16893108  .00000377  00000+0  65986-4 0  9999","line2":"2 61936  98.0034 153.2417 0000672 129.6840 230.4427 14.73311401 82051","mean_motion":14.73311401,"eccentricity":6.72e-5,"inclination_deg":98.0034,"raan_deg":153.2417,"arg_perigee_deg":129.684,"mean_anomaly_deg":230.4427,"bstar":6.5986e-5,"rev_number":8205,"period_min":97.739011523471,"perigee_km":650.04429896633,"apogee_km":650.98895001346,"semimajor_km":7028.6536244899,"source":"CELESTRAK","updated_at":"2026-05-25T13:38:02.639706Z"}}}